Location: Tamazert
(32.6352°N, 5.2072°W)
Time: 04:15:05
(UTC+00:00)

Vanguard 2 Rocket - Pass Details

Date: 03 October 2022
Orbit: 555 x 3321 km, 32.9° (Epoch: 05 December)

Event Time Altitude Azimuth Distance (km) Brightness Sun altitude
Rises 18:04:07 0° 189° (S) 7,220 11.7 -1.1°
Reaches altitude 10° 18:12:34 10° 170° (S) 6,264 11.1 -2.8°
Maximum altitude 18:22:07 15° 141° (SE) 5,587 10.6 -4.8°
Drops below altitude 10° 18:30:42 10° 111° (ESE) 5,624 10.3 -6.6°
Enters shadow 18:33:26 - 102° (ESE) 5,793 10.3 -7.2°
Sets 18:37:14 0° 92° (E) 6,150 - -8.0°
